[[{"header":{"parameterUnit":"m.s-1","parameterCategory":1,"la1":30.2991,"la2":30.254,"lo1":-89.0895,"lo2":-89.0444,"dy":0.0017,"dx":0.0017,"nx":28,"ny":28,"refTime":"2024-07-10T09:00:00:Z","depth":0,"parameterNumber":2,"parameterNumberName":"U-component_of_WINDS"},"data":[0,0,0,0,0,0,0,0,0,0,0,0,0,0,0,0,0,0,0,0,0,0,0,0,0,0,0,0,0,0,0,0,0,0,0,0,0,0,0,0,0,0,0,0,0,0,0,0,0,0,0,0,0,0,0,0,0,0,4.7299,4.7301,0,4.749,4.7492,4.7495,4.7442,4.7438,4.7434,4.7431,4.7628,4.7636,4.7645,0,0,0,0,0,0,0,0,0,0,0,0,0,4.6886,4.6894,4.7299,4.7301,4.7304,4.749,4.7493,4.7495,4.7443,4.7438,4.7433,4.7429,4.7625,4.7635,4.7646,0,0,0,0,0,0,0,0,0,0,0,0,0,4.7071,4.6897,4.7298,4.73,4.7302,4.7489,4.7493,4.7496,4.7444,4.7438,4.7432,4.7427,4.7621,4.7634,4.7647,4.7846,0,0,4.7688,4.7694,0,0,0,0,0,0,0,0,4.706,4.7086,4.7297,4.73,4.7303,4.7436,4.7419,4.7613,4.7445,4.739,4.7431,4.7424,4.7569,4.7586,4.7635,4.7855,4.7863,4.7689,4.7697,4.7703,4.7707,0,0,0,0,0,0,0,4.7047,4.7077,4.7375,4.73,4.7304,4.729,4.731,4.7456,4.751,4.7394,4.7391,4.7414,4.7569,4.7622,4.7639,4.7866,4.7689,4.7701,4.7709,4.7714,4.8253,4.8259,0,0,0,0,0,0,4.7033,4.7067,4.7368,4.738,4.7165,4.7303,4.7325,4.7399,4.7508,4.7519,4.7419,4.7411,4.7602,4.7624,4.7646,4.7881,4.7703,4.7715,4.7723,4.8247,4.8255,4.8262,0,0,0,0,0,0,4.7024,4.706,4.7361,4.7223,4.726,4.7316,4.74,4.7406,4.7459,4.7527,4.7536,4.7463,4.7599,4.7627,4.7795,4.7887,4.7721,4.7733,4.824,4.8249,4.8258,4.8356,0,0,0,0,0,0,4.7012,4.7057,4.7134,4.7225,4.7268,4.7508,4.7406,4.7414,4.7482,4.7473,4.757,4.7581,4.7596,4.7776,4.7808,4.7903,4.7744,4.8231,4.8244,4.8255,4.8345,4.8368,4.8387,0,0,0,0,0,4.6998,4.7155,4.7138,4.7175,4.7364,4.7513,4.7537,4.7551,4.749,4.7566,4.7609,4.7578,4.7873,4.7793,4.783,4.7929,4.8226,4.824,4.8254,4.8335,4.8363,4.8387,0,0,0,0,0,0,4.7074,4.7167,4.7149,4.734,4.7419,4.7504,4.7601,4.7581,4.768,4.7668,4.7681,4.7704,4.7874,4.7919,4.7829,4.8124,4.804,4.8062,4.8089,4.8116,4.8137,4.8121,4.7755,0,0,0,0,0,4.7113,4.7227,4.7301,4.7463,4.7503,4.7545,4.7611,4.7615,4.7697,4.773,4.7785,4.7866,4.7976,4.8049,4.8155,4.8351,4.837,4.8438,4.8459,4.8476,4.8494,4.8598,4.8627,4.8309,4.8309,4.8308,0,0,4.7195,4.726,4.7331,4.748,4.7541,4.7657,4.7574,4.7701,4.7786,4.775,4.791,4.7954,4.8045,4.8227,4.831,4.8269,4.8587,4.8494,4.8508,4.8517,4.8615,4.8645,4.8672,4.8318,4.8317,4.8315,0,0,4.7402,4.7464,4.7603,4.7666,4.7759,4.7786,4.7819,4.7907,4.7934,4.8096,4.8069,4.8171,4.8362,4.8427,4.8485,4.8713,4.8687,4.8748,4.8858,4.8958,4.8983,4.9006,4.9084,4.9112,4.8766,4.8767,4.8767,0,4.7492,4.7666,4.7678,4.7806,4.7871,4.7842,4.7981,4.8042,4.8165,4.821,4.8163,4.8399,4.8459,4.8654,4.8709,4.8758,4.8795,4.8736,4.8979,4.9001,4.9022,4.9097,4.9127,4.8773,4.8772,4.8772,4.8771,0,4.777,4.7891,4.7992,4.811,4.8186,4.832,4.8351,4.8427,4.8424,4.8455,4.8618,4.8688,4.8805,4.8852,4.8851,4.9046,4.9017,4.8975,4.889,4.9059,4.9129,4.9158,4.8782,4.878,4.8778,4.8776,0,0,4.8031,4.8152,4.8189,4.824,4.834,4.8433,4.8564,4.8678,4.8741,4.8827,4.8936,4.9097,4.9057,4.9122,4.9128,4.9217,4.9388,4.9163,4.9165,4.9199,4.9603,4.9632,4.9665,4.9373,4.9378,4.9383,4.9594,0,4.8245,4.8475,4.8488,4.8696,4.8806,4.8778,4.8892,4.8965,4.8997,4.9094,4.913,4.9242,4.9183,4.9222,4.9308,4.9349,4.9469,4.9335,4.9471,4.9476,4.9446,4.9703,4.9735,4.9931,4.9622,4.9627,4.963,0,4.8525,4.8617,4.8836,4.8916,4.8963,4.9065,4.9168,4.9262,4.9343,4.936,4.9432,4.9424,4.9557,4.9468,4.965,4.9558,4.9615,4.9643,4.9651,4.9662,4.9561,4.9717,4.9994,5.0022,4.9674,4.9671,4.9668,0,4.8689,4.8868,4.9021,4.9066,4.9165,4.9237,4.9281,4.9357,4.9423,4.9514,4.9556,4.9662,4.9719,4.98,4.982,4.9754,5.0,4.9914,5.0015,5.0015,5.0067,5.0063,5.0353,5.0109,5.0108,5.0108,5.0107,0,4.8924,4.9058,4.9095,4.9189,4.9337,4.9351,4.9497,4.9537,4.9604,4.9703,4.9687,4.9781,4.9804,4.9902,4.9919,5.0064,5.0091,5.0107,5.0109,5.0107,5.0104,5.0142,5.0128,5.0116,5.0114,5.0112,5.0111,0,4.9132,4.9163,4.9327,4.9406,4.9429,4.9534,4.9602,4.9691,4.972,4.9846,4.9877,4.9923,5.0037,5.0066,5.0203,5.0214,5.0384,5.0376,5.0357,5.0355,5.0454,5.0443,5.0777,5.0819,5.055,5.0552,5.0554,0,4.9279,4.9381,4.947,4.9535,4.9582,4.9688,4.9755,4.9771,4.9841,4.9939,5.0016,5.0128,5.0218,5.0402,5.0447,5.0551,5.0542,5.0652,5.0558,5.055,5.0539,5.0532,5.054,5.0669,5.0672,5.0674,5.0676,0,4.9535,4.9544,4.9641,4.9742,4.9822,4.9903,4.998,5.0034,5.0061,5.014,5.0256,5.0326,5.0464,5.0574,5.0678,5.0723,5.0703,5.0706,5.0734,5.0731,5.0714,5.0721,5.0402,5.0697,5.0695,5.0694,5.0693,5.0692,4.9714,4.9802,4.9877,4.9984,5.0044,5.0116,5.0202,5.0241,5.0338,5.045,5.0454,5.0579,5.0655,5.0792,5.0843,5.094,5.0906,5.0948,5.0958,5.0968,5.0974,5.0701,5.0959,5.0959,5.0958,5.0958,5.0957,0,4.9966,5.0013,5.0111,5.0218,5.0302,5.0276,5.0359,5.0431,5.0541,5.0613,5.0701,5.0832,5.0938,5.0991,5.1095,5.1163,5.1156,5.1189,5.1183,5.1193,5.1,5.0963,5.1192,5.1192,5.1192,5.1192,5.1192,5.1192,5.0107,5.0252,5.027,5.0444,5.049,5.0611,5.066,5.0725,5.0782,5.0929,5.1016,5.105,5.1113,5.1222,5.1317,5.133,5.1367,5.1405,5.1412,5.1231,5.1207,5.1184,5.1149,5.1414,5.1414,5.1596,5.1598,5.1599]},{"header":{"parameterUnit":"m.s-1","parameterCategory":1,"la1":30.2991,"la2":30.254,"lo1":-89.0895,"lo2":-89.0444,"dy":0.0017,"dx":0.0017,"nx":28,"ny":28,"refTime":"2024-07-10T09:00:00:Z","depth":0,"parameterNumber":3,"parameterNumberName":"V-component_of_WINDS"},"data":[0,0,0,0,0,0,0,0,0,0,0,0,0,0,0,0,0,0,0,0,0,0,0,0,0,0,0,0,0,0,0,0,0,0,0,0,0,0,0,0,0,0,0,0,0,0,0,0,0,0,0,0,0,0,0,0,0,0,1.5009,1.501,0,1.5095,1.5096,1.5097,1.5067,1.5066,1.5064,1.5062,1.5153,1.5157,1.5161,0,0,0,0,0,0,0,0,0,0,0,0,0,1.482,1.4824,1.5009,1.501,1.5011,1.5095,1.5096,1.5097,1.5068,1.5065,1.5063,1.5061,1.5152,1.5157,1.5162,0,0,0,0,0,0,0,0,0,0,0,0,0,1.4904,1.4825,1.5009,1.5006,1.5007,1.5094,1.5096,1.5097,1.5068,1.5065,1.5063,1.506,1.515,1.5156,1.5162,1.5258,0,0,1.5182,1.5184,0,0,0,0,0,0,0,0,1.4899,1.4911,1.5006,1.5007,1.5007,1.5067,1.5063,1.5151,1.5069,1.5045,1.5062,1.5058,1.5127,1.5135,1.5158,1.5262,1.5266,1.5182,1.5186,1.5189,1.519,0,0,0,0,0,0,0,1.4894,1.4907,1.5043,1.5007,1.5008,1.5001,1.501,1.5079,1.5101,1.5047,1.5045,1.5055,1.5127,1.5152,1.5159,1.5268,1.5182,1.5188,1.5191,1.5194,1.5453,1.5456,0,0,0,0,0,0,1.4887,1.4902,1.504,1.5045,1.4945,1.5007,1.5017,1.5051,1.51,1.5105,1.5058,1.5054,1.5142,1.5152,1.5163,1.5277,1.5189,1.5195,1.5198,1.545,1.5454,1.5457,0,0,0,0,0,0,1.4883,1.49,1.5037,1.4973,1.499,1.5013,1.5052,1.5054,1.5079,1.5108,1.5112,1.5079,1.514,1.5154,1.5234,1.528,1.5197,1.5203,1.5446,1.5451,1.5456,1.5507,0,0,0,0,0,0,1.4878,1.4898,1.4935,1.4974,1.4994,1.5106,1.5055,1.5058,1.5089,1.5085,1.5129,1.5134,1.5139,1.5225,1.524,1.5287,1.5208,1.5443,1.5449,1.5454,1.5501,1.5512,1.5522,0,0,0,0,0,1.4871,1.4947,1.4937,1.4954,1.504,1.5109,1.512,1.5124,1.5093,1.513,1.5148,1.5132,1.5272,1.5233,1.525,1.53,1.544,1.5447,1.5454,1.5496,1.551,1.5522,0,0,0,0,0,0,1.4914,1.4952,1.4941,1.5032,1.5067,1.5104,1.5151,1.5139,1.5185,1.5179,1.5182,1.5193,1.5275,1.5295,1.5251,1.5394,1.5351,1.5362,1.5378,1.5391,1.5402,1.5395,1.5213,0,0,0,0,0,1.4933,1.4986,1.5017,1.5094,1.5112,1.5128,1.5159,1.5158,1.5195,1.521,1.5235,1.5272,1.5324,1.5359,1.5408,1.5503,1.5512,1.5545,1.5556,1.5565,1.5574,1.5624,1.5639,1.548,1.548,1.548,0,0,1.4975,1.5003,1.5036,1.5103,1.513,1.5184,1.5141,1.5201,1.5241,1.522,1.5296,1.5316,1.5357,1.5445,1.5485,1.5464,1.562,1.5573,1.558,1.5585,1.5633,1.5648,1.5661,1.5485,1.5484,1.5483,0,0,1.5079,1.5105,1.5171,1.5199,1.524,1.525,1.5266,1.5304,1.5315,1.5392,1.5376,1.5424,1.5514,1.5544,1.5571,1.5683,1.567,1.5699,1.5755,1.5804,1.5817,1.5828,1.5867,1.5881,1.5709,1.5709,1.5709,0,1.5126,1.5207,1.5207,1.5268,1.5297,1.5278,1.5345,1.5372,1.5428,1.5449,1.5425,1.5536,1.5563,1.5656,1.5683,1.5706,1.5724,1.5695,1.5815,1.5826,1.5836,1.5874,1.5889,1.5712,1.5712,1.5711,1.5711,0,1.5262,1.5318,1.5367,1.5419,1.5454,1.5518,1.5528,1.5563,1.5559,1.5572,1.5649,1.568,1.5735,1.5757,1.5755,1.585,1.5836,1.5813,1.5771,1.5855,1.589,1.5905,1.5717,1.5716,1.5715,1.5714,0,0,1.5398,1.5447,1.5465,1.5488,1.553,1.5574,1.5636,1.5688,1.5718,1.5756,1.5808,1.5883,1.5862,1.5893,1.5893,1.5936,1.6022,1.5908,1.5909,1.5928,1.6127,1.6144,1.6161,1.6012,1.6015,1.6017,1.6124,0,1.5504,1.5612,1.5614,1.5713,1.5764,1.5746,1.58,1.5832,1.5844,1.589,1.5904,1.5957,1.5925,1.5943,1.5985,1.6002,1.6062,1.5995,1.6061,1.6063,1.6051,1.6179,1.6198,1.6297,1.6138,1.614,1.6142,0,1.5644,1.5685,1.5789,1.5822,1.5844,1.5892,1.5939,1.5983,1.6018,1.6024,1.6057,1.605,1.6113,1.6068,1.6155,1.6109,1.6136,1.6148,1.6152,1.6159,1.6108,1.619,1.6329,1.6344,1.6164,1.6162,1.616,0,1.5731,1.5813,1.5885,1.5905,1.5946,1.598,1.5999,1.6031,1.6062,1.6103,1.6123,1.6171,1.6198,1.6235,1.6241,1.6208,1.6328,1.6283,1.6335,1.6335,1.6362,1.636,1.6507,1.6379,1.6379,1.6379,1.6378,0,1.5851,1.5915,1.5924,1.5969,1.604,1.6041,1.6111,1.6127,1.6156,1.6203,1.619,1.6235,1.624,1.6287,1.6292,1.6362,1.6375,1.6381,1.6382,1.6383,1.6382,1.6401,1.6394,1.6382,1.6382,1.6381,1.638,0,1.5961,1.597,1.6047,1.6079,1.6088,1.6139,1.6166,1.6209,1.6219,1.6279,1.6293,1.631,1.6363,1.6373,1.6436,1.644,1.6524,1.6517,1.6511,1.6511,1.6562,1.6557,1.6726,1.6748,1.6606,1.6607,1.6608,0,1.6037,1.6086,1.6122,1.6152,1.6172,1.6221,1.6251,1.6253,1.6285,1.6327,1.6365,1.6416,1.6458,1.6544,1.6563,1.6611,1.6605,1.6661,1.6613,1.6611,1.6606,1.6603,1.6607,1.6671,1.6673,1.6674,1.6675,0,1.6171,1.6172,1.6216,1.6261,1.6297,1.6333,1.6367,1.6392,1.6398,1.6435,1.6488,1.652,1.6584,1.6635,1.6683,1.6702,1.669,1.669,1.6704,1.6706,1.67,1.6703,1.6537,1.6686,1.6685,1.6684,1.6684,1.6683,1.6266,1.6308,1.6339,1.6387,1.6412,1.6444,1.6485,1.6499,1.6544,1.6595,1.6593,1.6652,1.6684,1.6746,1.6769,1.6814,1.6797,1.6818,1.6823,1.6828,1.6833,1.6692,1.6823,1.6823,1.6823,1.6822,1.6822,0,1.6398,1.6416,1.6461,1.6508,1.6546,1.6529,1.6565,1.6598,1.665,1.6681,1.6721,1.6782,1.6831,1.6852,1.69,1.6933,1.6928,1.6946,1.6944,1.6948,1.6846,1.6829,1.6948,1.6948,1.6948,1.6948,1.6948,1.6948,1.6472,1.6541,1.6545,1.6627,1.6645,1.6701,1.6723,1.6752,1.6776,1.6844,1.6885,1.6897,1.6924,1.6974,1.7018,1.7023,1.7041,1.7061,1.7063,1.6968,1.6955,1.6943,1.6927,1.7065,1.7065,1.7161,1.7162,1.7162]}]]